Weather History for Effingham, IL

Change the Weather History Date:

Saturday, January 18, 2014

  Actual Average (KMTO) Record (KMTO)
Temperature  
Mean Temperature 24 °F 27 °F  
Max Temperature 34 °F 35 °F 63 °F (1951)
Min Temperature 13 °F 19 °F -10 °F (1977)
Degree Days  
Heating Degree Days 42 38  
Month to date heating degree days 681  
Since 1 July heating degree days 2784  
Cooling Degree Days 0 0  
Month to date cooling degree days 0  
Year to date cooling degree days 0  
Moisture  
Dew Point 18 °F    
Average Humidity 75    
Maximum Humidity 94    
Minimum Humidity 43    
Precipitation  
Precipitation 0.00 in 0.08 in 2.15 in (1949)
Month to date precipitation 1.50  
Year to date precipitation 1.50  
Sea Level Pressure  
Sea Level Pressure 29.85 in    
Wind  
Wind Speed 7 mph (South)    
Max Wind Speed 21 mph    
Max Gust Speed 28 mph    
Visibility 9 miles    
Events Snow    
T = Trace of Precipitation, MM = Missing Value Source: NWS Daily Summary

Daily Weather History Graph

Daily Weather History Graph

Search for Another Location

Airport:

Trip Planner

Search our weather history database for the weather conditions in past years. The results will help you decide how hot, cold, wet, or windy it might be!

Date:

Astronomy

Jan. 18, 2014 Rise Set
Actual Time 7:10 AM CST 4:59 PM CST
Civil Twilight 6:41 AM CST 5:28 PM CST
Nautical Twilight 6:08 AM CST 6:00 PM CST
Astronomical Twilight 5:36 AM CST 6:32 PM CST
Moon 7:39 PM CST (1/18) 8:11 AM CST (1/18)
Length of Visible Light 10h 46m
Length of Day
9h 48m
Waning Gibbous, 94% of the Moon is Illuminated
Jan 18
Waning Gibbous
Jan 23
Last Quarter
Jan 30
New
Feb 6
First Quarter
Feb 14
Full

Hourly Weather History & Observations

Time (CST) Temp. Windchill Dew Point Humidity Pressure Visibility Wind Dir Wind Speed Gust Speed Precip Events Conditions
12:15 AM 18.0 °F 8.7 °F 8.4 °F 66% 30.05 in 10.0 mi West 6.9 mph - N/A   Clear
12:35 AM 17.4 °F 8.0 °F 8.4 °F 68% 30.05 in 10.0 mi WSW 6.9 mph - N/A   Clear
12:55 AM 16.9 °F 8.5 °F 8.2 °F 69% 30.05 in 10.0 mi West 5.8 mph - N/A   Clear
1:15 AM 16.3 °F 7.8 °F 8.2 °F 70% 30.05 in 10.0 mi West 5.8 mph - N/A   Clear
1:35 AM 15.8 °F 8.6 °F 8.2 °F 72% 30.05 in 10.0 mi SW 4.6 mph - N/A   Clear
1:55 AM 15.8 °F 8.6 °F 8.2 °F 72% 30.05 in 10.0 mi SW 4.6 mph - N/A   Clear
2:15 AM 14.9 °F 9.2 °F 8.2 °F 75% 30.05 in 10.0 mi SSW 3.5 mph - N/A   Clear
2:35 AM 13.6 °F 7.7 °F 7.5 °F 77% 30.04 in 10.0 mi SSW 3.5 mph - N/A   Clear
2:55 AM 14.2 °F 6.7 °F 8.4 °F 78% 30.03 in 10.0 mi SSW 4.6 mph - N/A   Clear
3:15 AM 14.7 °F 7.3 °F 8.4 °F 76% 30.03 in 10.0 mi SW 4.6 mph - N/A   Clear
3:35 AM 14.7 °F - 8.4 °F 76% 30.02 in 10.0 mi Calm Calm - N/A   Clear
3:55 AM 13.3 °F 5.6 °F 7.7 °F 78% 30.04 in 10.0 mi SW 4.6 mph - N/A   Clear
4:15 AM 13.8 °F 6.2 °F 8.2 °F 78% 30.03 in 10.0 mi SSW 4.6 mph - N/A   Clear
4:35 AM 14.0 °F 8.2 °F 8.6 °F 79% 30.01 in 10.0 mi SE 3.5 mph - N/A   Clear
4:55 AM 13.1 °F 5.4 °F 8.4 °F 82% 30.01 in 10.0 mi SSE 4.6 mph - N/A   Clear
5:15 AM 13.5 °F 5.8 °F 8.2 °F 80% 30.00 in 10.0 mi South 4.6 mph - N/A   Clear
5:35 AM 13.5 °F 7.5 °F 8.2 °F 80% 30.00 in 10.0 mi South 3.5 mph - N/A   Clear
5:55 AM 13.6 °F 6.0 °F 8.4 °F 80% 29.98 in 10.0 mi SSE 4.6 mph - N/A   Mostly Cloudy
6:15 AM 14.5 °F 7.1 °F 9.0 °F 79% 29.98 in 10.0 mi South 4.6 mph - N/A   Overcast
6:35 AM 15.1 °F 6.4 °F 9.0 °F 77% 29.97 in 10.0 mi South 5.8 mph - N/A   Overcast
6:55 AM 15.8 °F 7.2 °F 9.3 °F 76% 29.96 in 10.0 mi South 5.8 mph - N/A   Overcast
7:15 AM 16.9 °F 6.4 °F 9.5 °F 73% 29.96 in 10.0 mi SSE 8.1 mph - N/A   Overcast
7:35 AM 17.8 °F 8.5 °F 10.0 °F 72% 29.96 in 10.0 mi South 6.9 mph - N/A   Overcast
7:55 AM 19.0 °F 9.0 °F 10.0 °F 68% 29.94 in 10.0 mi South 8.1 mph - N/A   Overcast
8:15 AM 19.6 °F 9.7 °F 10.4 °F 68% 29.92 in 10.0 mi SSE 8.1 mph - N/A   Overcast
8:35 AM 20.7 °F 11.0 °F 10.8 °F 66% 29.92 in 10.0 mi SSE 8.1 mph - N/A   Overcast
8:55 AM 21.9 °F 11.7 °F 11.3 °F 64% 29.90 in 10.0 mi SSE 9.2 mph 16.1 mph N/A   Overcast
9:15 AM 23.0 °F 12.4 °F 11.8 °F 62% 29.89 in 10.0 mi SSE 10.4 mph 16.1 mph N/A   Overcast
9:35 AM 23.9 °F 11.7 °F 11.8 °F 60% 29.87 in 10.0 mi SSE 13.8 mph 18.4 mph N/A   Overcast
9:55 AM 24.6 °F 11.3 °F 12.2 °F 59% 29.85 in 10.0 mi SSE 17.3 mph 20.7 mph N/A   Overcast
10:15 AM 25.5 °F 12.9 °F 12.4 °F 58% 29.83 in 10.0 mi SSE 16.1 mph 24.2 mph N/A   Overcast
10:35 AM 26.2 °F 13.8 °F 12.0 °F 55% 29.80 in 10.0 mi SSE 16.1 mph 24.2 mph N/A   Overcast
10:55 AM 27.0 °F 14.3 °F 11.7 °F 53% 29.78 in 10.0 mi SSE 17.3 mph 21.9 mph N/A   Overcast
11:15 AM 27.5 °F 15.4 °F 11.7 °F 51% 29.76 in 10.0 mi SSE 16.1 mph 27.6 mph N/A   Mostly Cloudy
11:35 AM 28.6 °F 17.2 °F 12.6 °F 51% 29.73 in 10.0 mi SSE 15.0 mph 23.0 mph N/A   Mostly Cloudy
11:55 AM 30.0 °F 18.7 °F 11.7 °F 46% 29.75 in 10.0 mi South 16.1 mph 26.5 mph N/A   Mostly Cloudy
12:15 PM 31.8 °F 23.3 °F 11.7 °F 43% 29.72 in 10.0 mi SSE 10.4 mph 17.3 mph N/A   Scattered Clouds
12:35 PM 31.5 °F 21.4 °F 11.5 °F 44% 29.70 in 10.0 mi SSE 13.8 mph 25.3 mph N/A   Scattered Clouds
12:55 PM 31.5 °F 21.8 °F 12.2 °F 45% 29.69 in 10.0 mi South 12.7 mph - N/A   Overcast
1:15 PM 31.5 °F 23.5 °F 12.9 °F 46% 29.68 in 10.0 mi South 9.2 mph 17.3 mph N/A   Overcast
1:35 PM 31.6 °F 21.6 °F 15.1 °F 50% 29.69 in 4.0 mi South 13.8 mph 21.9 mph N/A Snow Light Snow
1:55 PM 30.7 °F 20.9 °F 21.0 °F 67% 29.69 in 1.8 mi South 12.7 mph 18.4 mph N/A Snow Light Snow
2:15 PM 30.2 °F 21.9 °F 24.1 °F 78% 29.69 in 1.2 mi South 9.2 mph 17.3 mph N/A Snow Light Snow
2:35 PM 30.4 °F 22.9 °F 25.3 °F 82% 29.69 in 2.5 mi South 8.1 mph - N/A Snow Light Snow
2:55 PM 30.6 °F 22.4 °F 25.5 °F 82% 29.69 in 10.0 mi South 9.2 mph - N/A Snow Light Snow
3:15 PM 31.1 °F 26.4 °F 26.6 °F 83% 29.69 in 7.0 mi South 4.6 mph - N/A Snow Light Snow
3:35 PM 31.5 °F 25.8 °F 27.5 °F 85% 29.70 in 7.0 mi South 5.8 mph - N/A Snow Light Snow
3:55 PM 31.8 °F 26.2 °F 27.5 °F 84% 29.70 in 4.0 mi South 5.8 mph - N/A Snow Light Snow
4:15 PM 31.8 °F 24.6 °F 27.9 °F 85% 29.71 in 7.0 mi South 8.1 mph - N/A Snow Light Snow
4:35 PM 32.0 °F 27.5 °F 27.3 °F 83% 29.71 in 10.0 mi SSW 4.6 mph - N/A   Overcast
4:55 PM 32.0 °F 27.5 °F 27.3 °F 83% 29.72 in 10.0 mi South 4.6 mph - N/A   Overcast
5:15 PM 32.0 °F 26.4 °F 27.5 °F 83% 29.73 in 5.0 mi SSW 5.8 mph - N/A Snow Light Snow
5:35 PM 32.0 °F 27.5 °F 28.2 °F 86% 29.74 in 4.0 mi SSW 4.6 mph - N/A Snow Light Snow
5:55 PM 32.0 °F - 28.9 °F 88% 29.74 in 7.0 mi Calm Calm - N/A Snow Light Snow
6:15 PM 32.2 °F - 29.1 °F 88% 29.74 in 10.0 mi Calm Calm - N/A   Overcast
6:35 PM 32.0 °F 28.7 °F 29.1 °F 89% 29.74 in 10.0 mi ESE 3.5 mph - N/A Snow Light Snow
6:55 PM 32.0 °F - 29.3 °F 90% 29.75 in 10.0 mi Calm Calm - N/A   Overcast
7:15 PM 32.0 °F - 29.1 °F 89% 29.75 in 10.0 mi Calm Calm - N/A   Overcast
7:35 PM 32.0 °F - 29.1 °F 89% 29.75 in 10.0 mi Calm Calm - N/A   Overcast
7:55 PM 32.0 °F 27.5 °F 29.1 °F 89% 29.76 in 10.0 mi North 4.6 mph - N/A   Overcast
8:15 PM 32.0 °F - 29.7 °F 91% 29.76 in 7.0 mi Calm Calm - N/A Snow Light Snow
8:35 PM 32.0 °F - 29.8 °F 92% 29.77 in 5.0 mi Calm Calm - N/A Snow Light Snow
8:55 PM 32.0 °F - 30.0 °F 92% 29.77 in 3.0 mi Calm Calm - N/A Snow Light Snow
9:15 PM 32.4 °F 29.1 °F 30.7 °F 94% 29.78 in 4.0 mi WNW 3.5 mph - N/A Snow Light Snow
9:35 PM 33.4 °F 25.9 °F 31.6 °F 93% 29.79 in 7.0 mi WNW 9.2 mph - N/A   Overcast
9:55 PM 34.0 °F 24.6 °F 32.0 °F 92% 29.80 in 10.0 mi NW 13.8 mph - N/A   Overcast
10:15 PM 32.9 °F 21.6 °F 29.3 °F 87% 29.82 in 10.0 mi NW 18.4 mph 23.0 mph N/A   Overcast
10:35 PM 31.8 °F 20.6 °F 26.6 °F 81% 29.84 in 10.0 mi NW 17.3 mph 23.0 mph N/A   Overcast
10:55 PM 30.9 °F 18.7 °F 25.5 °F 80% 29.85 in 10.0 mi NW 19.6 mph 23.0 mph N/A   Overcast
11:15 PM 30.0 °F 17.9 °F 24.3 °F 79% 29.86 in 10.0 mi NW 18.4 mph 25.3 mph N/A   Overcast
11:35 PM 28.2 °F 14.8 °F 22.3 °F 78% 29.88 in 10.0 mi WNW 20.7 mph 26.5 mph N/A   Overcast
11:55 PM 27.1 °F 13.4 °F 21.7 °F 80% 29.90 in 10.0 mi WNW 20.7 mph 24.2 mph N/A   Overcast